sat.trackr.live / text

‹ back to catalog

STARLINK-5064

NORAD 55428 · 2023-014AP

PAYLOAD ACTIVE UNKNOWN

§ Identity

Operator
Country
US
Launch date
2023-01-31
Launch site
AFWTR
Launch vehicle
Mass (kg)
RCS (m²)

Purposes: comms

External: N2YO · Heavens-Above · Gunter

§ Orbital elements

Epoch: 2026-09-20T22:00:03.000096Z

Period
95.70 min
Inclination
70.0026°
Eccentricity
0.0003988
Mean motion
15.04691528 rev/d
Perigee alt
549.7 km
Apogee alt
555.2 km
Semi-major
6,930.6 km
B*
5.8877e-3
RAAN
312.3547°
Arg perigee
258.1322°
Mean anomaly
48.2130°
Rev number
576

§ Raw data

STARLINK-50641 55428U 23014AP  26263.91670139  .00083930  00000+0  58877-2 0  99982 55428  70.0026 312.3547 0003988 258.1322  48.2130 15.04691528  5764

JSON: /api/v1/satellites/55428 · /tle

For live sub-satellite position, see the globe view (requires WebGL).

§ Visibility from observer

Set your observer location to see the next 7 days of passes ≥ 10°. The values pass through the URL so the page stays shareable.

No JS? Fill the form by hand. The geolocation button needs JavaScript.